Location: Huntsville
(41.2590°N, 111.7678°W)
Time: 08:04:43
(UTC+00:00)

Envisat - Pass Details

Date: 08 December 2021
Orbit: 764 x 766 km, 98.2° (Epoch: 18 January)

Event Time Altitude Azimuth Distance (km) Brightness Sun altitude
Rises 13:04:18 0° 6° (N) 3,241 6.1 -17.5°
Reaches altitude 10° 13:06:42 10° 359° (N) 2,310 5.3 -17.0°
Maximum altitude 13:11:29 43° 290° (WNW) 1,069 3.3 -16.2°
Drops below altitude 10° 13:16:15 10° 220° (SW) 2,295 5.2 -15.3°
Sets 13:18:38 0° 213° (SSW) 3,216 6.1 -14.9°
